Year,Month,Day,Hour,Minute,Value (Times are PST for temperature in C)
2020,04,12,00,00,4.10
2020,04,12,00,01,4.10
2020,04,12,00,02,4.10
2020,04,12,00,03,4.10
2020,04,12,00,04,4.10
2020,04,12,00,05,4.10
2020,04,12,00,06,4.10
2020,04,12,00,07,4.10
2020,04,12,00,08,4.10
2020,04,12,00,09,4.10
2020,04,12,00,10,4.10
2020,04,12,00,11,4.10
2020,04,12,00,12,4.10
2020,04,12,00,13,4.10
2020,04,12,00,14,4.10
2020,04,12,00,15,4.10
2020,04,12,00,16,4.10
2020,04,12,00,17,4.10
2020,04,12,00,18,4.10
2020,04,12,00,19,4.10
2020,04,12,00,20,4.10
2020,04,12,00,21,4.00
2020,04,12,00,22,4.00
2020,04,12,00,23,4.00
2020,04,12,00,24,4.00
2020,04,12,00,25,4.00
2020,04,12,00,26,4.00
2020,04,12,00,27,4.00
2020,04,12,00,28,4.00
2020,04,12,00,29,4.00
2020,04,12,00,30,4.00
2020,04,12,00,31,4.00
2020,04,12,00,32,4.00
2020,04,12,00,33,4.00
2020,04,12,00,34,4.00
2020,04,12,00,35,4.10
2020,04,12,00,36,4.10
2020,04,12,00,37,4.10
2020,04,12,00,38,4.10
2020,04,12,00,39,4.20
2020,04,12,00,40,4.20
2020,04,12,00,41,4.20
2020,04,12,00,42,4.20
2020,04,12,00,43,4.20
2020,04,12,00,44,4.20
2020,04,12,00,45,4.20
2020,04,12,00,46,4.20
2020,04,12,00,47,4.20
2020,04,12,00,48,4.20
2020,04,12,00,49,4.20
2020,04,12,00,50,4.30
2020,04,12,00,51,4.30
2020,04,12,00,52,4.30
2020,04,12,00,53,4.30
2020,04,12,00,54,4.30
2020,04,12,00,55,4.30
2020,04,12,00,56,4.30
2020,04,12,00,57,4.30
2020,04,12,00,58,4.30
2020,04,12,00,59,4.30
2020,04,12,01,00,4.30
2020,04,12,01,01,4.30
2020,04,12,01,02,4.40
2020,04,12,01,03,4.40
2020,04,12,01,04,4.40
2020,04,12,01,05,4.40
2020,04,12,01,06,4.40
2020,04,12,01,07,4.40
2020,04,12,01,08,4.40
2020,04,12,01,09,4.40
2020,04,12,01,10,4.40
2020,04,12,01,11,4.50
2020,04,12,01,12,4.50
2020,04,12,01,13,4.50
2020,04,12,01,14,4.50
2020,04,12,01,15,4.50
2020,04,12,01,16,4.50
2020,04,12,01,17,4.50
2020,04,12,01,18,4.50
2020,04,12,01,19,4.50
2020,04,12,01,20,4.50
2020,04,12,01,21,4.50
2020,04,12,01,22,4.50
2020,04,12,01,23,4.50
2020,04,12,01,24,4.50
2020,04,12,01,25,4.50
2020,04,12,01,26,4.50
2020,04,12,01,27,4.50
2020,04,12,01,28,4.50
2020,04,12,01,29,4.50
2020,04,12,01,30,4.50
2020,04,12,01,31,4.50
2020,04,12,01,32,4.40
2020,04,12,01,33,4.40
2020,04,12,01,34,4.40
2020,04,12,01,35,4.40
2020,04,12,01,36,4.40
2020,04,12,01,37,4.40
2020,04,12,01,38,4.40
2020,04,12,01,39,4.30
2020,04,12,01,40,4.30
2020,04,12,01,41,4.30
2020,04,12,01,42,4.20
2020,04,12,01,43,4.20
2020,04,12,01,44,4.20
2020,04,12,01,45,4.20
2020,04,12,01,46,4.20
2020,04,12,01,47,4.20
2020,04,12,01,48,4.20
2020,04,12,01,49,4.20
2020,04,12,01,50,4.20
2020,04,12,01,51,4.10
2020,04,12,01,52,4.10
2020,04,12,01,53,4.10
2020,04,12,01,54,4.00
2020,04,12,01,55,4.00
2020,04,12,01,56,4.00
2020,04,12,01,57,4.00
2020,04,12,01,58,3.90
2020,04,12,01,59,3.90
2020,04,12,02,00,3.90
2020,04,12,02,01,3.90
2020,04,12,02,02,3.80
2020,04,12,02,03,3.80
2020,04,12,02,04,3.80
2020,04,12,02,05,3.80
2020,04,12,02,06,3.80
2020,04,12,02,07,3.90
2020,04,12,02,08,3.90
2020,04,12,02,09,3.90
2020,04,12,02,10,4.00
2020,04,12,02,11,4.00
2020,04,12,02,12,4.00
2020,04,12,02,13,4.00
2020,04,12,02,14,4.00
2020,04,12,02,15,4.00
2020,04,12,02,16,4.00
2020,04,12,02,17,4.00
2020,04,12,02,18,4.00
2020,04,12,02,19,4.00
2020,04,12,02,20,4.00
2020,04,12,02,21,3.90
2020,04,12,02,22,3.90
2020,04,12,02,23,3.90
2020,04,12,02,24,3.90
2020,04,12,02,25,3.80
2020,04,12,02,26,3.80
2020,04,12,02,27,3.80
2020,04,12,02,28,3.80
2020,04,12,02,29,3.80
2020,04,12,02,30,3.80
2020,04,12,02,31,3.80
2020,04,12,02,32,3.80
2020,04,12,02,33,3.80
2020,04,12,02,34,3.80
2020,04,12,02,35,3.80
2020,04,12,02,36,3.80
2020,04,12,02,37,3.80
2020,04,12,02,38,3.80
2020,04,12,02,39,3.80
2020,04,12,02,40,3.80
2020,04,12,02,41,3.80
2020,04,12,02,42,3.80
2020,04,12,02,43,3.80
2020,04,12,02,44,3.70
2020,04,12,02,45,3.70
2020,04,12,02,46,3.70
2020,04,12,02,47,3.60
2020,04,12,02,48,3.60
2020,04,12,02,49,3.60
2020,04,12,02,50,3.60
2020,04,12,02,51,3.50
2020,04,12,02,52,3.50
2020,04,12,02,53,3.50
2020,04,12,02,54,3.40
2020,04,12,02,55,3.40
2020,04,12,02,56,3.40
2020,04,12,02,57,3.30
2020,04,12,02,58,3.30
2020,04,12,02,59,3.30
2020,04,12,03,00,3.30
2020,04,12,03,01,3.30
2020,04,12,03,02,3.30
2020,04,12,03,03,3.20
2020,04,12,03,04,3.20
2020,04,12,03,05,3.20
2020,04,12,03,06,3.10
2020,04,12,03,07,3.10
2020,04,12,03,08,3.10
2020,04,12,03,09,3.10
2020,04,12,03,10,3.10
2020,04,12,03,11,3.10
2020,04,12,03,12,2.90
2020,04,12,03,13,2.90
2020,04,12,03,14,2.90
2020,04,12,03,15,2.90
2020,04,12,03,16,2.90
2020,04,12,03,17,2.90
2020,04,12,03,18,2.90
2020,04,12,03,19,2.90
2020,04,12,03,20,2.90
2020,04,12,03,21,2.90
2020,04,12,03,22,2.90
2020,04,12,03,23,2.90
2020,04,12,03,24,2.80
2020,04,12,03,25,2.80
2020,04,12,03,26,2.80
2020,04,12,03,27,2.80
2020,04,12,03,28,2.80
2020,04,12,03,29,2.80
2020,04,12,03,30,2.80
2020,04,12,03,31,2.70
2020,04,12,03,32,2.70
2020,04,12,03,33,2.70
2020,04,12,03,34,2.70
2020,04,12,03,35,2.70
2020,04,12,03,36,2.70
2020,04,12,03,37,2.70
2020,04,12,03,38,2.70
2020,04,12,03,39,2.70
2020,04,12,03,40,2.70
2020,04,12,03,41,2.70
2020,04,12,03,42,2.70
2020,04,12,03,43,2.70
2020,04,12,03,44,2.70
2020,04,12,03,45,2.70
2020,04,12,03,46,2.70
2020,04,12,03,47,2.60
2020,04,12,03,48,2.60
2020,04,12,03,49,2.60
2020,04,12,03,50,2.60
2020,04,12,03,51,2.60
2020,04,12,03,52,2.60
2020,04,12,03,53,2.60
2020,04,12,03,54,2.60
2020,04,12,03,55,2.70
2020,04,12,03,56,2.70
2020,04,12,03,57,2.70
2020,04,12,03,58,2.70
2020,04,12,03,59,2.70
2020,04,12,04,00,2.70
2020,04,12,04,01,2.70
2020,04,12,04,02,2.70
2020,04,12,04,03,2.70
2020,04,12,04,04,2.70
2020,04,12,04,05,2.70
2020,04,12,04,06,2.70
2020,04,12,04,07,2.70
2020,04,12,04,08,2.70
2020,04,12,04,09,2.70
2020,04,12,04,10,2.70
2020,04,12,04,11,2.70
2020,04,12,04,12,2.70
2020,04,12,04,13,2.70
2020,04,12,04,14,2.70
2020,04,12,04,15,2.70
2020,04,12,04,16,2.80
2020,04,12,04,17,2.80
2020,04,12,04,18,2.80
2020,04,12,04,19,2.80
2020,04,12,04,20,2.80
2020,04,12,04,21,2.80
2020,04,12,04,22,2.90
2020,04,12,04,23,2.90
2020,04,12,04,24,2.90
2020,04,12,04,25,2.90
2020,04,12,04,26,2.90
2020,04,12,04,27,2.90
2020,04,12,04,28,2.90
2020,04,12,04,29,2.90
2020,04,12,04,30,3.10
2020,04,12,04,31,3.10
2020,04,12,04,32,3.10
2020,04,12,04,33,3.10
2020,04,12,04,34,3.10
2020,04,12,04,35,3.10
2020,04,12,04,36,3.10
2020,04,12,04,37,3.10
2020,04,12,04,38,3.10
2020,04,12,04,39,3.10
2020,04,12,04,40,3.10
2020,04,12,04,41,3.20
2020,04,12,04,42,3.20
2020,04,12,04,43,3.20
2020,04,12,04,44,3.20
2020,04,12,04,45,3.20
2020,04,12,04,46,3.30
2020,04,12,04,47,3.30
2020,04,12,04,48,3.30
2020,04,12,04,49,3.50
2020,04,12,04,50,3.50
2020,04,12,04,51,3.60
2020,04,12,04,52,3.70
2020,04,12,04,53,3.80
2020,04,12,04,54,3.90
2020,04,12,04,55,4.00
2020,04,12,04,56,4.00
2020,04,12,04,57,4.00
2020,04,12,04,58,4.10
2020,04,12,04,59,4.10
2020,04,12,05,00,4.10
2020,04,12,05,01,4.10
2020,04,12,05,02,4.10
2020,04,12,05,03,4.10
2020,04,12,05,04,4.20
2020,04,12,05,05,4.20
2020,04,12,05,06,4.20
2020,04,12,05,07,4.30
2020,04,12,05,08,4.40
2020,04,12,05,09,4.40
2020,04,12,05,10,4.40
2020,04,12,05,11,4.40
2020,04,12,05,12,4.40
2020,04,12,05,13,4.40
2020,04,12,05,14,4.50
2020,04,12,05,15,4.60
2020,04,12,05,16,4.60
2020,04,12,05,17,4.70
2020,04,12,05,18,4.80
2020,04,12,05,19,4.90
2020,04,12,05,20,4.90
2020,04,12,05,21,4.90
2020,04,12,05,22,4.90
2020,04,12,05,23,4.90
2020,04,12,05,24,4.90
2020,04,12,05,25,4.90
2020,04,12,05,26,4.90
2020,04,12,05,27,4.90
2020,04,12,05,28,5.00
2020,04,12,05,29,5.10
2020,04,12,05,30,5.10
2020,04,12,05,31,5.10
2020,04,12,05,32,5.20
2020,04,12,05,33,5.20
2020,04,12,05,34,5.20
2020,04,12,05,35,5.30
2020,04,12,05,36,5.30
2020,04,12,05,37,5.30
2020,04,12,05,38,5.30
2020,04,12,05,39,5.30
2020,04,12,05,40,5.40
2020,04,12,05,41,5.40
2020,04,12,05,42,5.40
2020,04,12,05,43,5.40
2020,04,12,05,44,5.50
2020,04,12,05,45,5.50
2020,04,12,05,46,5.50
2020,04,12,05,47,5.50
2020,04,12,05,48,5.60
2020,04,12,05,49,5.50
2020,04,12,05,50,5.50
2020,04,12,05,51,5.50
2020,04,12,05,52,5.60
2020,04,12,05,53,5.60
2020,04,12,05,54,5.70
2020,04,12,05,55,5.70
2020,04,12,05,56,5.70
2020,04,12,05,57,5.80
2020,04,12,05,58,5.80
2020,04,12,05,59,5.90
2020,04,12,06,00,5.90
2020,04,12,06,01,6.00
2020,04,12,06,02,6.00
2020,04,12,06,03,6.00
2020,04,12,06,04,6.00
2020,04,12,06,05,6.00
2020,04,12,06,06,6.00
2020,04,12,06,07,6.00
2020,04,12,06,08,6.00
2020,04,12,06,09,5.90
2020,04,12,06,10,5.90
2020,04,12,06,11,5.90
2020,04,12,06,12,5.90
2020,04,12,06,13,6.00
2020,04,12,06,14,6.00
2020,04,12,06,15,5.90
2020,04,12,06,16,5.90
2020,04,12,06,17,5.90
2020,04,12,06,18,5.80
2020,04,12,06,19,5.80
2020,04,12,06,20,5.80
2020,04,12,06,21,5.80
2020,04,12,06,22,5.80
2020,04,12,06,23,5.90
2020,04,12,06,24,5.90
2020,04,12,06,25,5.90
2020,04,12,06,26,6.00
2020,04,12,06,27,6.00
2020,04,12,06,28,6.00
2020,04,12,06,29,6.00
2020,04,12,06,30,6.00
2020,04,12,06,31,5.90
2020,04,12,06,32,5.90
2020,04,12,06,33,5.80
2020,04,12,06,34,5.80
2020,04,12,06,35,5.80
2020,04,12,06,36,5.80
2020,04,12,06,37,5.80
2020,04,12,06,38,5.80
2020,04,12,06,39,5.90
2020,04,12,06,40,5.90
2020,04,12,06,41,6.00
2020,04,12,06,42,6.10
2020,04,12,06,43,6.10
2020,04,12,06,44,6.10
2020,04,12,06,45,6.00
2020,04,12,06,46,6.00
2020,04,12,06,47,5.90
2020,04,12,06,48,5.90
2020,04,12,06,49,5.90
2020,04,12,06,50,5.90
2020,04,12,06,51,5.90
2020,04,12,06,52,5.90
2020,04,12,06,53,5.90
2020,04,12,06,54,5.80
2020,04,12,06,55,5.80
2020,04,12,06,56,5.80
2020,04,12,06,57,5.80
2020,04,12,06,58,5.80
2020,04,12,06,59,5.80
2020,04,12,07,00,5.80
2020,04,12,07,01,5.80
2020,04,12,07,02,5.80
2020,04,12,07,03,5.90
2020,04,12,07,04,5.90
2020,04,12,07,05,5.90
2020,04,12,07,06,6.00
2020,04,12,07,07,6.00
2020,04,12,07,08,6.00
2020,04,12,07,09,6.10
2020,04,12,07,10,6.10
2020,04,12,07,11,6.20
2020,04,12,07,12,6.20
2020,04,12,07,13,6.20
2020,04,12,07,14,6.20
2020,04,12,07,15,6.20
2020,04,12,07,16,6.20
2020,04,12,07,17,6.20
2020,04,12,07,18,6.20
2020,04,12,07,19,6.20
2020,04,12,07,20,6.20
2020,04,12,07,21,6.20
2020,04,12,07,22,6.30
2020,04,12,07,23,6.30
2020,04,12,07,24,6.30
2020,04,12,07,25,6.30
2020,04,12,07,26,6.30
2020,04,12,07,27,6.30
2020,04,12,07,28,6.30
2020,04,12,07,29,6.20
2020,04,12,07,30,6.30
2020,04,12,07,31,6.30
2020,04,12,07,32,6.40
2020,04,12,07,33,6.40
2020,04,12,07,34,6.40
2020,04,12,07,35,6.60
2020,04,12,07,36,6.60
2020,04,12,07,37,6.70
2020,04,12,07,38,6.70
2020,04,12,07,39,6.80
2020,04,12,07,40,6.80
2020,04,12,07,41,6.90
2020,04,12,07,42,7.00
2020,04,12,07,43,7.00
2020,04,12,07,44,7.10
2020,04,12,07,45,7.10
2020,04,12,07,46,7.20
2020,04,12,07,47,7.30
2020,04,12,07,48,7.30
2020,04,12,07,49,7.40
2020,04,12,07,50,7.40
2020,04,12,07,51,7.50
2020,04,12,07,52,7.60
2020,04,12,07,53,7.60
2020,04,12,07,54,7.70
2020,04,12,07,55,7.80
2020,04,12,07,56,7.80
2020,04,12,07,57,7.90
2020,04,12,07,58,8.00
2020,04,12,07,59,8.00
2020,04,12,08,00,8.10
2020,04,12,08,01,8.20
2020,04,12,08,02,8.20
2020,04,12,08,03,8.30
2020,04,12,08,04,8.30
2020,04,12,08,05,8.40
2020,04,12,08,06,8.50
2020,04,12,08,07,8.50
2020,04,12,08,08,8.50
2020,04,12,08,09,8.60
2020,04,12,08,10,8.60
2020,04,12,08,11,8.70
2020,04,12,08,12,8.70
2020,04,12,08,13,8.70
2020,04,12,08,14,8.70
2020,04,12,08,15,8.80
2020,04,12,08,16,8.80
2020,04,12,08,17,8.90
2020,04,12,08,18,8.90
2020,04,12,08,19,9.00
2020,04,12,08,20,9.00
2020,04,12,08,21,9.10
2020,04,12,08,22,9.10
2020,04,12,08,23,9.10
2020,04,12,08,24,9.20
2020,04,12,08,25,9.20
2020,04,12,08,26,9.20
2020,04,12,08,27,9.20
2020,04,12,08,28,9.30
2020,04,12,08,29,9.30
2020,04,12,08,30,9.30
2020,04,12,08,31,9.40
2020,04,12,08,32,9.40
2020,04,12,08,33,9.40
2020,04,12,08,34,9.40
2020,04,12,08,35,9.50
2020,04,12,08,36,9.50
2020,04,12,08,37,9.60
2020,04,12,08,38,9.70
2020,04,12,08,39,9.70
2020,04,12,08,40,9.70
2020,04,12,08,41,9.70
2020,04,12,08,42,9.70
2020,04,12,08,43,9.70
2020,04,12,08,44,9.70
2020,04,12,08,45,9.70
2020,04,12,08,46,9.80
2020,04,12,08,47,9.80
2020,04,12,08,48,9.80
2020,04,12,08,49,9.80
2020,04,12,08,50,9.80
2020,04,12,08,51,9.70
2020,04,12,08,52,9.70
2020,04,12,08,53,9.70
2020,04,12,08,54,9.80
2020,04,12,08,55,9.80
2020,04,12,08,56,9.90
2020,04,12,08,57,9.90
2020,04,12,08,58,9.90
2020,04,12,08,59,9.90
2020,04,12,09,00,10.00
2020,04,12,09,01,10.10
2020,04,12,09,02,10.10
2020,04,12,09,03,10.10
2020,04,12,09,04,10.10
2020,04,12,09,05,10.10
2020,04,12,09,06,10.10
2020,04,12,09,07,10.10
2020,04,12,09,08,10.10
2020,04,12,09,09,10.10
2020,04,12,09,10,10.10
2020,04,12,09,11,10.20
2020,04,12,09,12,10.30
2020,04,12,09,13,10.30
2020,04,12,09,14,10.40
2020,04,12,09,15,10.40
2020,04,12,09,16,10.50
2020,04,12,09,17,10.60
2020,04,12,09,18,10.60
2020,04,12,09,19,10.50
2020,04,12,09,20,10.40
2020,04,12,09,21,10.40
2020,04,12,09,22,10.40
2020,04,12,09,23,10.40
2020,04,12,09,24,10.40
2020,04,12,09,25,10.40
2020,04,12,09,26,10.40
2020,04,12,09,27,10.40
2020,04,12,09,28,10.40
2020,04,12,09,29,10.40
2020,04,12,09,30,10.40
2020,04,12,09,31,10.40
2020,04,12,09,32,10.40
2020,04,12,09,33,10.40
2020,04,12,09,34,10.50
2020,04,12,09,35,10.60
2020,04,12,09,36,10.60
2020,04,12,09,37,10.60
2020,04,12,09,38,10.60
2020,04,12,09,39,10.60
2020,04,12,09,40,10.60
2020,04,12,09,41,10.70
2020,04,12,09,42,10.60
2020,04,12,09,43,10.70
2020,04,12,09,44,10.70
2020,04,12,09,45,10.70
2020,04,12,09,46,10.80
2020,04,12,09,47,10.90
2020,04,12,09,48,10.90
2020,04,12,09,49,11.00
2020,04,12,09,50,11.10
2020,04,12,09,51,11.10
2020,04,12,09,52,11.20
2020,04,12,09,53,11.30
2020,04,12,09,54,11.40
2020,04,12,09,55,11.50
2020,04,12,09,56,11.60
2020,04,12,09,57,11.60
2020,04,12,09,58,11.60
2020,04,12,09,59,11.70
2020,04,12,10,00,11.70
2020,04,12,10,01,11.70
2020,04,12,10,02,11.70
2020,04,12,10,03,11.70
2020,04,12,10,04,11.70
2020,04,12,10,05,11.60
2020,04,12,10,06,11.40
2020,04,12,10,07,11.40
2020,04,12,10,08,11.40
2020,04,12,10,09,11.30
2020,04,12,10,10,11.30
2020,04,12,10,11,11.30
2020,04,12,10,12,11.30
2020,04,12,10,13,11.30
2020,04,12,10,14,11.40
2020,04,12,10,15,11.40
2020,04,12,10,16,11.50
2020,04,12,10,17,11.60
2020,04,12,10,18,11.60
2020,04,12,10,19,11.80
2020,04,12,10,20,11.80
2020,04,12,10,21,11.90
2020,04,12,10,22,11.90
2020,04,12,10,23,11.90
2020,04,12,10,24,11.90
2020,04,12,10,25,12.00
2020,04,12,10,26,12.00
2020,04,12,10,27,12.10
2020,04,12,10,28,12.20
2020,04,12,10,29,12.30
2020,04,12,10,30,12.30
2020,04,12,10,31,12.30
2020,04,12,10,32,12.30
2020,04,12,10,33,12.30
2020,04,12,10,34,12.30
2020,04,12,10,35,12.30
2020,04,12,10,36,12.30
2020,04,12,10,37,12.20
2020,04,12,10,38,12.10
2020,04,12,10,39,12.00
2020,04,12,10,40,11.90
2020,04,12,10,41,11.90
2020,04,12,10,42,11.90
2020,04,12,10,43,11.90
2020,04,12,10,44,11.80
2020,04,12,10,45,11.90
2020,04,12,10,46,12.00
2020,04,12,10,47,12.00
2020,04,12,10,48,12.10
2020,04,12,10,49,12.20
2020,04,12,10,50,12.30
2020,04,12,10,51,12.30
2020,04,12,10,52,12.30
2020,04,12,10,53,12.20
2020,04,12,10,54,12.20
2020,04,12,10,55,12.30
2020,04,12,10,56,12.40
2020,04,12,10,57,12.40
2020,04,12,10,58,12.50
2020,04,12,10,59,12.50
2020,04,12,11,00,12.60
2020,04,12,11,01,12.60
2020,04,12,11,02,12.70
2020,04,12,11,03,12.80
2020,04,12,11,04,12.80
2020,04,12,11,05,12.80
2020,04,12,11,06,12.90
2020,04,12,11,07,12.90
2020,04,12,11,08,12.90
2020,04,12,11,09,12.80
2020,04,12,11,10,12.80
2020,04,12,11,11,12.80
2020,04,12,11,12,12.80
2020,04,12,11,13,12.80
2020,04,12,11,14,12.80
2020,04,12,11,15,12.80
2020,04,12,11,16,12.80
2020,04,12,11,17,12.70
2020,04,12,11,18,12.60
2020,04,12,11,19,12.60
2020,04,12,11,20,12.70
2020,04,12,11,21,12.70
2020,04,12,11,22,12.70
2020,04,12,11,23,12.70
2020,04,12,11,24,12.80
2020,04,12,11,25,12.80
2020,04,12,11,26,12.80
2020,04,12,11,27,12.80
2020,04,12,11,28,12.80
2020,04,12,11,29,12.90
2020,04,12,11,30,12.90
2020,04,12,11,31,13.00
2020,04,12,11,32,13.00
2020,04,12,11,33,13.00
2020,04,12,11,34,12.90
2020,04,12,11,35,12.90
2020,04,12,11,36,12.80
2020,04,12,11,37,12.90
2020,04,12,11,38,12.80
2020,04,12,11,39,12.80
2020,04,12,11,40,12.80
2020,04,12,11,41,12.80
2020,04,12,11,42,12.80
2020,04,12,11,43,12.80
2020,04,12,11,44,12.80
2020,04,12,11,45,12.70
2020,04,12,11,46,12.70
2020,04,12,11,47,12.60
2020,04,12,11,48,12.70
2020,04,12,11,49,12.80
2020,04,12,11,50,12.80
2020,04,12,11,51,12.80
2020,04,12,11,52,12.80
2020,04,12,11,53,12.80
2020,04,12,11,54,12.80
2020,04,12,11,55,12.80
2020,04,12,11,56,12.80
2020,04,12,11,57,13.00
2020,04,12,11,58,13.00
2020,04,12,11,59,13.10
2020,04,12,12,00,13.30
2020,04,12,12,01,13.20
2020,04,12,12,02,13.10
2020,04,12,12,03,13.10
2020,04,12,12,04,13.10
2020,04,12,12,05,13.10
2020,04,12,12,06,13.10
2020,04,12,12,07,13.10
2020,04,12,12,08,13.10
2020,04,12,12,09,13.20
2020,04,12,12,10,13.30
2020,04,12,12,11,13.30
2020,04,12,12,12,13.40
2020,04,12,12,13,13.50
2020,04,12,12,14,13.50
2020,04,12,12,15,13.50
2020,04,12,12,16,13.60
2020,04,12,12,17,13.60
2020,04,12,12,18,13.70
2020,04,12,12,19,13.60
2020,04,12,12,20,13.60
2020,04,12,12,21,13.50
2020,04,12,12,22,13.50
2020,04,12,12,23,13.50
2020,04,12,12,24,13.50
2020,04,12,12,25,13.60
2020,04,12,12,26,13.70
2020,04,12,12,27,13.70
2020,04,12,12,28,13.70
2020,04,12,12,29,13.70
2020,04,12,12,30,13.50
2020,04,12,12,31,13.50
2020,04,12,12,32,13.40
2020,04,12,12,33,13.50
2020,04,12,12,34,13.50
2020,04,12,12,35,13.60
2020,04,12,12,36,13.70
2020,04,12,12,37,13.70
2020,04,12,12,38,13.70
2020,04,12,12,39,13.70
2020,04,12,12,40,13.70
2020,04,12,12,41,13.70
2020,04,12,12,42,13.70
2020,04,12,12,43,13.80
2020,04,12,12,44,13.80
2020,04,12,12,45,13.80
2020,04,12,12,46,13.80
2020,04,12,12,47,13.70
2020,04,12,12,48,13.70
2020,04,12,12,49,13.60
2020,04,12,12,50,13.60
2020,04,12,12,51,13.70
2020,04,12,12,52,13.70
2020,04,12,12,53,13.80
2020,04,12,12,54,13.90
2020,04,12,12,55,14.00
2020,04,12,12,56,14.10
2020,04,12,12,57,14.10
2020,04,12,12,58,14.10
2020,04,12,12,59,14.00
2020,04,12,13,00,13.90
2020,04,12,13,01,13.90
2020,04,12,13,02,13.90
2020,04,12,13,03,13.80
2020,04,12,13,04,13.80
2020,04,12,13,05,13.70
2020,04,12,13,06,13.70
2020,04,12,13,07,13.70
2020,04,12,13,08,13.80
2020,04,12,13,09,13.80
2020,04,12,13,10,13.90
2020,04,12,13,11,13.90
2020,04,12,13,12,13.90
2020,04,12,13,13,13.90
2020,04,12,13,14,13.90
2020,04,12,13,15,14.00
2020,04,12,13,16,14.00
2020,04,12,13,17,14.10
2020,04,12,13,18,14.20
2020,04,12,13,19,14.20
2020,04,12,13,20,14.10
2020,04,12,13,21,14.00
2020,04,12,13,22,14.00
2020,04,12,13,23,14.10
2020,04,12,13,24,14.10
2020,04,12,13,25,14.20
2020,04,12,13,26,14.40
2020,04,12,13,27,14.50
2020,04,12,13,28,14.50
2020,04,12,13,29,14.60
2020,04,12,13,30,14.60
2020,04,12,13,31,14.60
2020,04,12,13,32,14.60
2020,04,12,13,33,14.50
2020,04,12,13,34,14.40
2020,04,12,13,35,14.40
2020,04,12,13,36,14.40
2020,04,12,13,37,14.40
2020,04,12,13,38,14.50
2020,04,12,13,39,14.60
2020,04,12,13,40,14.60
2020,04,12,13,41,14.60
2020,04,12,13,42,14.70
2020,04,12,13,43,14.80
2020,04,12,13,44,15.00
2020,04,12,13,45,15.10
2020,04,12,13,46,15.10
2020,04,12,13,47,15.00
2020,04,12,13,48,14.80
2020,04,12,13,49,14.60
2020,04,12,13,50,14.50
2020,04,12,13,51,14.40
2020,04,12,13,52,14.30
2020,04,12,13,53,14.20
2020,04,12,13,54,14.20
2020,04,12,13,55,14.20
2020,04,12,13,56,14.00
2020,04,12,13,57,13.70
2020,04,12,13,58,13.70
2020,04,12,13,59,13.70
2020,04,12,14,00,13.70
2020,04,12,14,01,13.80
2020,04,12,14,02,13.80
2020,04,12,14,03,13.70
2020,04,12,14,04,13.60
2020,04,12,14,05,13.70
2020,04,12,14,06,13.70
2020,04,12,14,07,13.70
2020,04,12,14,08,13.70
2020,04,12,14,09,13.60
2020,04,12,14,10,13.50
2020,04,12,14,11,13.50
2020,04,12,14,12,13.30
2020,04,12,14,13,13.30
2020,04,12,14,14,13.30
2020,04,12,14,15,13.30
2020,04,12,14,16,13.30
2020,04,12,14,17,13.30
2020,04,12,14,18,13.10
2020,04,12,14,19,13.10
2020,04,12,14,20,12.90
2020,04,12,14,21,12.80
2020,04,12,14,22,12.70
2020,04,12,14,23,12.60
2020,04,12,14,24,12.50
2020,04,12,14,25,12.60
2020,04,12,14,26,12.60
2020,04,12,14,27,12.60
2020,04,12,14,28,12.70
2020,04,12,14,29,12.60
2020,04,12,14,30,12.50
2020,04,12,14,31,12.60
2020,04,12,14,32,12.70
2020,04,12,14,33,12.80
2020,04,12,14,34,12.90
2020,04,12,14,35,12.90
2020,04,12,14,36,12.80
2020,04,12,14,37,12.80
2020,04,12,14,38,12.80
2020,04,12,14,39,12.80
2020,04,12,14,40,12.80
2020,04,12,14,41,12.80
2020,04,12,14,42,12.90
2020,04,12,14,43,12.90
2020,04,12,14,44,13.00
2020,04,12,14,45,13.00
2020,04,12,14,46,13.00
2020,04,12,14,47,12.90
2020,04,12,14,48,12.80
2020,04,12,14,49,12.80
2020,04,12,14,50,12.90
2020,04,12,14,51,12.80
2020,04,12,14,52,12.80
2020,04,12,14,53,12.60
2020,04,12,14,54,12.60
2020,04,12,14,55,12.70
2020,04,12,14,56,12.80
2020,04,12,14,57,12.90
2020,04,12,14,58,13.00
2020,04,12,14,59,13.00
2020,04,12,15,00,13.10
2020,04,12,15,01,13.20
2020,04,12,15,02,13.20
2020,04,12,15,03,13.10
2020,04,12,15,04,13.10
2020,04,12,15,05,13.10
2020,04,12,15,06,13.10
2020,04,12,15,07,13.00
2020,04,12,15,08,13.00
2020,04,12,15,09,13.00
2020,04,12,15,10,13.20
2020,04,12,15,11,13.30
2020,04,12,15,12,13.30
2020,04,12,15,13,13.20
2020,04,12,15,14,13.10
2020,04,12,15,15,13.10
2020,04,12,15,16,13.10
2020,04,12,15,17,13.20
2020,04,12,15,18,13.20
2020,04,12,15,19,13.30
2020,04,12,15,20,13.30
2020,04,12,15,21,13.30
2020,04,12,15,22,13.30
2020,04,12,15,23,13.30
2020,04,12,15,24,13.20
2020,04,12,15,25,13.20
2020,04,12,15,26,13.30
2020,04,12,15,27,13.30
2020,04,12,15,28,13.40
2020,04,12,15,29,13.50
2020,04,12,15,30,13.50
2020,04,12,15,31,13.60
2020,04,12,15,32,13.70
2020,04,12,15,33,13.70
2020,04,12,15,34,13.70
2020,04,12,15,35,13.70
2020,04,12,15,36,13.70
2020,04,12,15,37,13.60
2020,04,12,15,38,13.50
2020,04,12,15,39,13.50
2020,04,12,15,40,13.50
2020,04,12,15,41,13.60
2020,04,12,15,42,13.70
2020,04,12,15,43,13.70
2020,04,12,15,44,13.80
2020,04,12,15,45,13.80
2020,04,12,15,46,13.70
2020,04,12,15,47,13.60
2020,04,12,15,48,13.50
2020,04,12,15,49,13.50
2020,04,12,15,50,13.60
2020,04,12,15,51,13.60
2020,04,12,15,52,13.60
2020,04,12,15,53,13.60
2020,04,12,15,54,13.60
2020,04,12,15,55,13.50
2020,04,12,15,56,13.40
2020,04,12,15,57,13.40
2020,04,12,15,58,13.50
2020,04,12,15,59,13.60
2020,04,12,16,00,13.60
2020,04,12,16,01,13.60
2020,04,12,16,02,13.70
2020,04,12,16,03,13.60
2020,04,12,16,04,13.60
2020,04,12,16,05,13.50
2020,04,12,16,06,13.40
2020,04,12,16,07,13.50
2020,04,12,16,08,13.60
2020,04,12,16,09,13.70
2020,04,12,16,10,13.80
2020,04,12,16,11,13.90
2020,04,12,16,12,14.00
2020,04,12,16,13,14.00
2020,04,12,16,14,14.10
2020,04,12,16,15,14.10
2020,04,12,16,16,14.00
2020,04,12,16,17,14.00
2020,04,12,16,18,13.90
2020,04,12,16,19,14.00
2020,04,12,16,20,13.90
2020,04,12,16,21,13.90
2020,04,12,16,22,14.00
2020,04,12,16,23,14.00
2020,04,12,16,24,14.00
2020,04,12,16,25,14.10
2020,04,12,16,26,14.10
2020,04,12,16,27,14.10
2020,04,12,16,28,14.00
2020,04,12,16,29,14.00
2020,04,12,16,30,14.00
2020,04,12,16,31,13.80
2020,04,12,16,32,13.70
2020,04,12,16,33,13.70
2020,04,12,16,34,13.60
2020,04,12,16,35,13.60
2020,04,12,16,36,13.60
2020,04,12,16,37,13.70
2020,04,12,16,38,13.70
2020,04,12,16,39,13.70
2020,04,12,16,40,13.80
2020,04,12,16,41,13.80
2020,04,12,16,42,13.70
2020,04,12,16,43,13.80
2020,04,12,16,44,13.80
2020,04,12,16,45,13.80
2020,04,12,16,46,13.80
2020,04,12,16,47,13.80
2020,04,12,16,48,13.90
2020,04,12,16,49,13.90
2020,04,12,16,50,14.00
2020,04,12,16,51,14.10
2020,04,12,16,52,14.20
2020,04,12,16,53,14.30
2020,04,12,16,54,14.30
2020,04,12,16,55,14.40
2020,04,12,16,56,14.40
2020,04,12,16,57,14.50
2020,04,12,16,58,14.50
2020,04,12,16,59,14.60
2020,04,12,17,00,14.60
2020,04,12,17,01,14.60
2020,04,12,17,02,14.70
2020,04,12,17,03,14.70
2020,04,12,17,04,14.60
2020,04,12,17,05,14.60
2020,04,12,17,06,14.60
2020,04,12,17,07,14.60
2020,04,12,17,08,14.70
2020,04,12,17,09,14.70
2020,04,12,17,10,14.80
2020,04,12,17,11,14.70
2020,04,12,17,12,14.70
2020,04,12,17,13,14.70
2020,04,12,17,14,14.70
2020,04,12,17,15,14.60
2020,04,12,17,16,14.60
2020,04,12,17,17,14.50
2020,04,12,17,18,14.50
2020,04,12,17,19,14.50
2020,04,12,17,20,14.50
2020,04,12,17,21,14.50
2020,04,12,17,22,14.50
2020,04,12,17,23,14.50
2020,04,12,17,24,14.50
2020,04,12,17,25,14.50
2020,04,12,17,26,14.60
2020,04,12,17,27,14.60
2020,04,12,17,28,14.60
2020,04,12,17,29,14.60
2020,04,12,17,30,14.60
2020,04,12,17,31,14.70
2020,04,12,17,32,14.70
2020,04,12,17,33,14.80
2020,04,12,17,34,14.70
2020,04,12,17,35,14.70
2020,04,12,17,36,14.80
2020,04,12,17,37,14.80
2020,04,12,17,38,14.80
2020,04,12,17,39,14.80
2020,04,12,17,40,14.80
2020,04,12,17,41,14.80
2020,04,12,17,42,14.80